Regional Weather Roundup
Issued by NWS

Home | Current Version | Previous Version | Text Only | Print | Product List | Glossary On
Versions: 1 2 3 4 5 6 7 8 9 10 11 12 13 14 15 16 17 18 19 20 21 22 23 24 25 26 27 28 29 30 31 32 33 34 35 36 37 38 39 40 41 42 43 44 45 46 47 48 49 50
000
ASUS43 KLMK 232110
RWRKY
KENTUCKY REGIONAL WEATHER ROUNDUP
NATIONAL WEATHER SERVICE LOUISVILLE KY
500 PM EDT SAT JUL 23 2016

NOTE "FAIR" INDICATES FEW OR NO CLOUDS BELOW 12,000 FEET
WITH NO SIGNIFICANT WEATHER AND/OR OBSTRUCTIONS TO VISIBILITY.

KYZ001>023-026-027-061>063-070>075-232200-
WESTERN AND SOUTH CENTRAL KENTUCKY

CITY           SKY/WX    TMP DP  RH WIND       PRES   REMARKS
PADUCAH        MOSUNNY   92  74  55 CALM      29.94F HX 101
HENDERSON      MOSUNNY   90  75  62 CALM      29.94F HX 100
OWENSBORO      MOSUNNY   93  78  61 W6        29.96F HX 108
HOPKINSVILLE   NOT AVBL
BOWLING GREEN  MOSUNNY   91  75  59 E3        29.96F HX 101
GLASGOW        MOSUNNY   90  72  56 E3        29.98S HX  97
$$

KYZ024-025-028>034-038-045-046-053-232200-
NORTH CENTRAL KENTUCKY

CITY           SKY/WX    TMP DP  RH WIND       PRES   REMARKS
LOUISVILLE/SDF PTSUNNY   93  70  46 VRB5      29.96F HX  99
LOUISVILLE/LOU MOSUNNY   94  71  47 NW5       29.97F HX 101
FORT KNOX      PTSUNNY   91  73  55 VRB5      29.97F HX  98
$$

KYZ035>037-039>044-047>052-055>060-089>105-232200-
NORTHEAST KENTUCKY

CITY           SKY/WX    TMP DP  RH WIND       PRES   REMARKS
LEXINGTON      SUNNY     93  71  48 W7        30.00F HX 100
COVINGTON      MOSUNNY   93  72  50 W7        29.99F HX 101
FRANKFORT      SUNNY     91  72  53 VRB3      29.98F HX  98
$$

KYZ054-064>069-076>088-106>120-232200-
SOUTHEAST KENTUCKY

CITY           SKY/WX    TMP DP  RH WIND       PRES   REMARKS
JACKSON        PTSUNNY   90  72  55 CALM      30.02F HX  97
LONDON         MOSUNNY   91  70  49 N5        30.01F HX  96
SOMERSET       MOSUNNY   90  72  55 N6        30.00F HX  96
MIDDLESBORO    SUNNY     91  72  52 N5        30.00S HX  98
MONTICELLO     CLEAR    N/A N/A N/A N13       30.02S
$$




USA.gov is the U.S. government's official web portal to all federal, state and local government web resources and services.